Regional Weather Roundup
Issued by NWS Wakefield, VA

Home | Current Version | Previous Version | Text Only | Print | Product List | Glossary Off
Versions: 1 2 3 4 5 6 7 8 9 10 11 12 13 14 15 16 17 18 19 20 21 22 23 24 25 26 27 28 29 30 31 32 33 34 35 36 37 38 39 40 41 42 43 44 45 46 47 48 49 50

000
ASUS41 KAKQ 272010
RWRAKQ

REGIONAL WEATHER ROUNDUP
NATIONAL WEATHER SERVICE WAKEFIELD VA
300 PM EST SAT DEC 27 2014

Note: "fair" indicates few or no clouds below 12,000 feet with no
significant weather and/or obstructions to visibility. * = Denotes
station may not report precipitation (e.g., rain,snow,etc.),
thunder or fog.

VAZ042-051-052>054-056-272100-
NORTHERN VIRGINIA

CITY           SKY/WX    TMP DP  RH WIND       PRES   REMARKS
WASH NATIONAL  PTSUNNY   58  34  40 CALM      30.20F
DULLES         CLOUDY    46  46 100 S12       30.06F FOG
FORT BELVOIR   MOSUNNY   58  33  38 E5        30.19F
QUANTICO       PTSUNNY   50  36  58 CALM      30.20F
FREDERICKSBRG* MOSUNNY   59  37  44 CALM      30.18F
STAFFORD*      MOSUNNY   58  29  32 CALM      30.22F
WARRENTON      PTSUNNY   59  40  49 E5        30.17F
CULPEPER*      PTSUNNY   61  30  31 CALM      30.18F
MANASSAS*      NOT AVBL
LEESBURG*      MOSUNNY   59  32  36 CALM      30.19F
WINCHESTER     MOSUNNY   59  12  15 SE3       30.16F
FRONT ROYAL*   PTCLDY    59  28  31 CALM      30.14F
LURAY*         PTCLDY    63  32  31 CALM      30.15F
$$

VAZ048-049-060>072-079>083-272100-
CENTRAL AND SOUTH CENTRAL VIRGINIA

CITY           SKY/WX    TMP DP  RH WIND       PRES   REMARKS
RICHMOND       PTSUNNY   65  34  31 S7        30.19S
CHESTERFIELD*  CLEAR     63  34  34 S7        30.20S
PETERSBURG*    SUNNY     64  31  28 SW7       30.20F
HANOVER        SUNNY     63  34  33 SW6       30.19F
TAPPAHANNOCK*  SUNNY     64  26  23 CALM      30.19F
QUINTON*       CLEAR     62  33  34 CALM      30.19S
CHARLOTTSVILLE MOSUNNY   65  21  18 CALM      30.16S
GORDONSVILLE*  PTCLDY    63  31  29 CALM      30.16S
ORANGE*        MOSUNNY   59  39  47 N5        30.19S
LOUISA*        MOSUNNY   64  34  32 S3        30.16S
BUMPASS*       PTCLDY    62  30  29 E7        30.17S
FARMVILLE*     SUNNY     68  32  25 S5        30.17S
CREWE*         CLEAR     64  34  33 S7        30.18F
FORT PICKETT*  CLEAR     62  36  37 SW7       30.19F
CHASE CITY*    CLEAR     65  38  37 S3        30.20S
CLARKSVILLE*   CLEAR     63  37  39 S5        30.20F
SOUTH HILL*    SUNNY     61  34  36 S6        30.27S
LAWRENCEVILLE* CLEAR     61  36  39 S7        30.21R
EMPORIA*       SUNNY     61  36  39 S6        30.24R
$$

VAZ088>098-272100-
SOUTHEAST VIRGINIA

CITY           SKY/WX    TMP DP  RH WIND       PRES   REMARKS
NORFOLK        SUNNY     61  34  36 SW8       30.20F
VIRGINIA BEACH MOSUNNY   62  37  39 S8        30.21F
NORFOLK NAVAL  MOSUNNY   65  33  30 S7        30.22F
WEST POINT*    SUNNY     64  30  27 CALM      30.21S
SALUDA*        FAIR      63  32  32 SW3       30.19F
NEWPORT NEWS   SUNNY     64  36  35 SW10      30.21F
LANGLEY AFB    SUNNY     61  36  39 SW7       30.20F
FORT EUSTIS    SUNNY     61  59  95 VRB5      30.20S
WILLIAMSBURG*  SUNNY     64  39  39 S6        30.22R
HR EXEC AP*    CLEAR     63  37  39 S3        30.23S
FRANKLIN*      SUNNY     61  36  39 SW6       30.22S
WAKEFIELD      SUNNY     62  37  39 VRB3      30.21S
$$

VAZ020-022-025-037-045-272100-
WEST CENTRAL AND SOUTHWEST VIRGINIA

CITY           SKY/WX    TMP DP  RH WIND       PRES   REMARKS
STAUNTON*      MOSUNNY   63  17  17 S6        30.18S
WAYNESBORO*    PTCLDY    61  20  20 SW5       30.16S
HOT SPRINGS VA MOSUNNY   53  17  24 W12       30.18R
LYNCHBURG      SUNNY     63  23  21 CALM      30.19F
DANVILLE       SUNNY     65  33  30 SW5       30.20F
SOUTH BOSTON*  CLEAR     64  33  30 S6        30.21R
MARTINSVILLE   SUNNY     67  34  30 S3        30.21F
ROANOKE        PTSUNNY   63  25  23 SE5       30.19F
BLACKSBURG     PTSUNNY   60  19  20 CALM      30.22S
DUBLIN*        PTSUNNY   64  22  20 CALM      30.20S
MARION*        PTSUNNY   63   1   8 W15       30.22S
HILLSVILLE*      N/A     64  17  16 SW6       30.19F
RICHLANDS*     CLOUDY    58  10  15 SW8       30.20S
WISE*          PTSUNNY   57  18  21 SW10      30.20F
ABINGDON*      CLOUDY    59  26  28 W3        30.20F
$$

MDZ021>025-VAZ099-100-272100-
SOUTHERN MARYLAND AND THE DELMARVA PENINSULA

CITY           SKY/WX    TMP DP  RH WIND       PRES   REMARKS
PATUXENT RIVER PTSUNNY   52  37  56 E7        30.19F
BAY BRIDGE APT   N/A     46  37  71 W3        30.22S
LEONARDTOWN    SUNNY     57  37  47 NE3       30.20F
DOVER          MOSUNNY   51  41  68 E5        30.20R
GEORGETOWN     MOSUNNY   61  34  36 W3        30.21R
EASTON         NOT AVBL
CAMBRIDGE      SUNNY     59  36  41 SW5       30.20S
SALISBURY      SUNNY     65  27  23 W10       30.21R
OCEAN CITY     MOSUNNY   51  43  74 S5        30.22R
WALLOPS ISLAND SUNNY     50  43  77 SW13      30.24R
ACCOMACK*      SUNNY     55  39  54 S3        30.21S
$$

NCZ012>017-030>032-272100-
NORTH CENTRAL AND EASTERN NORTH CAROLINA

CITY           SKY/WX    TMP DP  RH WIND       PRES   REMARKS
ROANOKE RAPIDS CLEAR     59  37  44 SW6       30.23R
RALEIGH        MOSUNNY   62  36  37 W6        30.24F
ELIZABETH CITY SUNNY     62  37  39 S8        30.23F
AHOSKIE*       SUNNY     60  36  41 S5        30.24R
EDENTON*       SUNNY     60  40  47 S3        30.24S
CURRITUCK*     SUNNY     60  34  38 S5        30.24R
KILL DEVIL HLS SUNNY     56  41  58 SE5       30.23S
MANTEO         SUNNY     55  41  58 S7        30.25R
CAPE HATTERAS  SUNNY     57  42  57 CALM      30.25F
TARBORO*       CLEAR     62  38  40 S6        30.25R
GOLDSBORO      SUNNY     63  40  43 S5        30.22F
WASHINGTON     SUNNY     60  37  42 SW5       30.25S
GREENVILLE     SUNNY     61  37  41 S8        30.25S
NEW BERN       SUNNY     63  41  44 E3        30.25F
WILMINGTON     SUNNY     63  44  50 SE7       30.24F
$$

VAZ048-272100-
ELSEWHERE

CITY           SKY/WX    TMP DP  RH WIND       PRES   REMARKS
HARRISBURG PA  PTSUNNY   56  33  42 SE6       30.16S
BALTIMORE      PTSUNNY   57  30  35 E5        30.19S
ANNAPOLIS      SUNNY     46  38  73 SE6       30.21F
ANDREWS AFB    MOSUNNY   57  32  38 E2        30.19F
PHILADELPHIA   PTSUNNY   56  32  40 S6        30.20S
HENDERSON NC   SUNNY     61  34  36 S7        30.22F
GREENSBORO     MOSUNNY   62  33  33 SW6       30.19F
ROCKY MOUNT    SUNNY     61  38  42 SW7       30.24R
$$

VAZ100-272100-
MARINE

STATION/POSITION TIME  TEMP    WIND        PRES    WAVE   SWELL
                       AIR SEA DIR/SP/G            HT/PER HT/PER
                 (UTC) (F)     (DEG/KT/KT) (MB)    (FT/S) (FT/S)
CAPE MAY NJ      2000   48 46  220/  3/  3 1022.7R
LEWES DE         2000   49 45   80/  5/  5 1023.0R
15NM E FENWICK I 2000   47 46              1022.9R   2/15
OCEAN-CITY-INLET 2000   48 45  200/  5/  6 1022.8R
WACHAPREAGUE VA  2000   52 48  190/  6/  8 1023.4S
THOMAS POINT MD  2000   47 43  180/  4/  4 1024.2F
GOOSES REEF MD   2000   45     VRB  2/  4  1022.4F
COVE POINT MD    2000   46     150/  5/  6 1022.6F
SOLOMONS ISLAND  2000      44                N/A
BISHOPS HEAD MD  2000   47 47  260/  5/  5 1023.0R
PINEY POINT MD   2000          160/  6/  7   N/A
POTOMAC MD       2000   46      70/  6/  8 1022.5F
CAMBRIDGE MD     2000   49 42  310/  1/  3 1022.7R
LEWISETTA VA     2000   46 45   80/  4/  5 1022.4F
RAPPAHANNOCK LGT 2000          160/ 13/ 13 1023.1F
STINGRAY PT      2000   48     160/ 10/ 12 1022.9F
YORK RVR RNG VA  2000   55     200/  7/  8 1022.0F
YORKTOWN VA      2000   60 47  190/  5/  7 1022.2F
JAMESTOWN VA     2000   58     210/  6/  6   N/A
DOMINION TERM VA 2000   54     220/  8/  8 1022.7F
KIPTOPEKE VA     2000      51  170/  8/  9   N/A
CHES BAY BRIDGE  2000   58 46  190/  3/  4 1022.7R
CAPE HENRY VA    2000   58     140/  5/  6 1021.9R
CHESAPEAKE LGHT  1900   50                 1024.0F
WILLOUBY STN VA  2000   57     230/  5/  6 1023.1F
S CRANEY ISL VA  2000          170/  5/  5 1022.5S
CAPE HENRY BUOY  2000      49                N/A     2/15   2/15
1ST LANDING BUOY 2000   54     110/  4/  6 1022.6F
CAPE CHARLES BUO 2000      48                N/A     2/15   2/15
64NM E OF VA BCH 2000   53 53  200/  6/  6 1023.8F   3/16   3/16
DUCK PIER NC     2000   56 48  140/  6/  6 1023.2R
44100 DUCK FRF   2000      51                N/A     3/15   2/15
44056 DUCK FRF   2000      50                N/A     2/17   2/17
OREGON INLET NC  2000   55 53  120/  5/  7 1024.1R
HATTERAS NC      2000   54 53  350/  2/  2 1024.7F
DIAMOND SHLS NC  2000   61                 1024.9S   3/16
CAPE LOOKOUT NC  1900   56     140/  4/  4 1024.5F
$$



USA.gov is the U.S. government's official web portal to all federal, state and local government web resources and services.